When you browse on this site, cookies collect data to enhance your experience and personalize the content and advertising you see.
Visit our Privacy Policy to learn more. By continuing to use the site, you agree to this use of cookies and data.
EN

Hourly Weather Iony

Today, 8 August, Saturday

Time Temperature Precipitation Wind Pressure Humidity
00:00 +19°C° 0 mm 1 mps 750 mmHg 88%
01:00 +19°C° 0 mm 1 mps 750 mmHg 88%
02:00 +19°C° 0 mm 1 mps 750 mmHg 89%
03:00 +19°C° 0 mm 1 mps 750 mmHg 89%
04:00 +19°C° 0 mm 1 mps 750 mmHg 88%
05:00 +19°C° 0 mm 1 mps 750 mmHg 88%
06:00 +20°C° 0 mm 1 mps 750 mmHg 87%
07:00 +20°C° 0 mm 1 mps 750 mmHg 86%
08:00 +21°C° 0 mm 1 mps 750 mmHg 84%
09:00 +21°C° 0.1 mm 1 mps 750 mmHg 82%
10:00 +22°C° 0.1 mm 1 mps 750 mmHg 81%
11:00 +22°C° 0.1 mm 1 mps 750 mmHg 79%
12:00 +23°C° 0.1 mm 1 mps 749 mmHg 75%
13:00 +24°C° 0.1 mm 1 mps 749 mmHg 72%
14:00 +24°C° 0 mm 1 mps 749 mmHg 69%
15:00 +25°C° 0.1 mm 1 mps 748 mmHg 70%
16:00 +25°C° 0.1 mm 1 mps 748 mmHg 71%
17:00 +25°C° 0.1 mm 2 mps 747 mmHg 72%
18:00 +23°C° 0.1 mm 2 mps 747 mmHg 77%
19:00 +21°C° 0.1 mm 2 mps 747 mmHg 82%
20:00 +19°C° 0.1 mm 2 mps 747 mmHg 87%
21:00 +20°C° 0 mm 1 mps 747 mmHg 88%
22:00 +19°C° 0 mm 1 mps 747 mmHg 88%
23:00 +18°C° 0 mm 1 mps 747 mmHg 89%

Tomorrow, 9 August, Sunday

Time Temperature Precipitation Wind Pressure Humidity
00:00 +18°C° 0 mm 1 mps 747 mmHg 90%
01:00 +18°C° 0 mm 1 mps 747 mmHg 91%
02:00 +16°C° 0 mm 1 mps 747 mmHg 92%
03:00 +16°C° 0 mm 2 mps 747 mmHg 93%
04:00 +16°C° 0 mm 2 mps 746 mmHg 93%
05:00 +16°C° 0 mm 2 mps 746 mmHg 94%
06:00 +17°C° 0 mm 2 mps 746 mmHg 90%
07:00 +19°C° 0 mm 2 mps 746 mmHg 87%
08:00 +20°C° 0 mm 2 mps 746 mmHg 83%
09:00 +21°C° 0.1 mm 3 mps 746 mmHg 78%
10:00 +22°C° 0.1 mm 3 mps 746 mmHg 74%
11:00 +25°C° 0.1 mm 3 mps 746 mmHg 70%
12:00 +25°C° 0.1 mm 3 mps 746 mmHg 68%
13:00 +25°C° 0.1 mm 3 mps 745 mmHg 65%
14:00 +26°C° 0.1 mm 2 mps 745 mmHg 63%
15:00 +26°C° 0 mm 2 mps 745 mmHg 65%
16:00 +26°C° 0 mm 2 mps 745 mmHg 67%
17:00 +25°C° 0 mm 2 mps 744 mmHg 69%
18:00 +24°C° 0.1 mm 2 mps 745 mmHg 74%
19:00 +21°C° 0.1 mm 2 mps 745 mmHg 79%
20:00 +19°C° 0.1 mm 2 mps 745 mmHg 84%
21:00 +19°C° 0.1 mm 2 mps 745 mmHg 86%
22:00 +18°C° 0.1 mm 2 mps 745 mmHg 88%
23:00 +18°C° 0.1 mm 2 mps 745 mmHg 89%

Day after tomorrow, 10 August, Monday

Time Temperature Precipitation Wind Pressure Humidity
00:00 +17°C° 0 mm 2 mps 745 mmHg 91%
01:00 +17°C° 0 mm 2 mps 745 mmHg 92%
02:00 +17°C° 0 mm 2 mps 744 mmHg 93%
03:00 +17°C° 0 mm 2 mps 744 mmHg 94%
04:00 +18°C° 0 mm 1 mps 744 mmHg 94%
05:00 +16°C° 0 mm 1 mps 744 mmHg 94%
06:00 +18°C° 0 mm 2 mps 744 mmHg 91%
07:00 +19°C° 0 mm 2 mps 744 mmHg 87%
08:00 +20°C° 0 mm 2 mps 745 mmHg 84%
09:00 +23°C° 0.6 mm 2 mps 744 mmHg 79%
10:00 +24°C° 0.6 mm 2 mps 744 mmHg 75%
11:00 +25°C° 0.6 mm 2 mps 744 mmHg 71%
12:00 +25°C° 0.9 mm 2 mps 744 mmHg 69%
13:00 +26°C° 0.9 mm 2 mps 744 mmHg 66%
14:00 +26°C° 0.9 mm 2 mps 744 mmHg 64%
15:00 +26°C° 0.5 mm 2 mps 744 mmHg 67%
16:00 +26°C° 0.5 mm 2 mps 743 mmHg 69%
17:00 +26°C° 0.5 mm 2 mps 743 mmHg 72%
18:00 +24°C° 0.2 mm 2 mps 743 mmHg 76%
19:00 +23°C° 0.2 mm 2 mps 743 mmHg 79%
20:00 +20°C° 0.2 mm 2 mps 743 mmHg 83%
21:00 +19°C° 0 mm 2 mps 743 mmHg 86%
22:00 +18°C° 0 mm 2 mps 743 mmHg 89%
23:00 +18°C° 0 mm 3 mps 743 mmHg 92%

11 August, Tuesday

Time Temperature Precipitation Wind Pressure Humidity
00:00 +17°C° 0.1 mm 3 mps 743 mmHg 93%
01:00 +17°C° 0.1 mm 3 mps 743 mmHg 94%
02:00 +16°C° 0.1 mm 3 mps 743 mmHg 95%
03:00 +16°C° 0 mm 3 mps 743 mmHg 95%
04:00 +16°C° 0 mm 3 mps 743 mmHg 95%
05:00 +14°C° 0 mm 3 mps 743 mmHg 95%
06:00 +16°C° 0 mm 3 mps 743 mmHg 91%
07:00 +17°C° 0 mm 3 mps 744 mmHg 87%
08:00 +18°C° 0 mm 3 mps 744 mmHg 83%
09:00 +19°C° 0 mm 4 mps 744 mmHg 79%
10:00 +20°C° 0 mm 4 mps 744 mmHg 75%
11:00 +21°C° 0 mm 4 mps 744 mmHg 71%
12:00 +20°C° 0 mm 4 mps 744 mmHg 69%
13:00 +20°C° 0 mm 5 mps 744 mmHg 68%
14:00 +20°C° 0 mm 5 mps 744 mmHg 66%
15:00 +20°C° 0 mm 5 mps 744 mmHg 69%
16:00 +19°C° 0 mm 5 mps 744 mmHg 71%
17:00 +17°C° 0 mm 5 mps 744 mmHg 73%
18:00 +16°C° 0 mm 5 mps 744 mmHg 76%
19:00 +14°C° 0 mm 4 mps 745 mmHg 80%
20:00 +13°C° 0 mm 3 mps 745 mmHg 83%
21:00 +13°C° 0 mm 3 mps 745 mmHg 84%
22:00 +13°C° 0 mm 3 mps 745 mmHg 84%
23:00 +13°C° 0 mm 4 mps 745 mmHg 85%

12 August, Wednesday

Time Temperature Precipitation Wind Pressure Humidity
00:00 +12°C° 0 mm 3 mps 745 mmHg 88%
01:00 +10°C° 0 mm 3 mps 745 mmHg 91%
02:00 +9°C° 0 mm 3 mps 745 mmHg 94%
03:00 +10°C° 0 mm 3 mps 745 mmHg 94%
04:00 +10°C° 0 mm 3 mps 746 mmHg 93%
05:00 +10°C° 0 mm 3 mps 746 mmHg 93%
06:00 +11°C° 0 mm 3 mps 746 mmHg 90%
07:00 +12°C° 0 mm 3 mps 746 mmHg 87%
08:00 +13°C° 0 mm 4 mps 746 mmHg 84%
09:00 +14°C° 0 mm 4 mps 746 mmHg 80%
10:00 +15°C° 0 mm 4 mps 746 mmHg 76%
11:00 +17°C° 0 mm 4 mps 747 mmHg 71%
12:00 +18°C° 0.1 mm 4 mps 746 mmHg 69%
13:00 +18°C° 0.1 mm 4 mps 746 mmHg 67%
14:00 +19°C° 0.1 mm 4 mps 746 mmHg 65%
15:00 +18°C° 0.1 mm 3 mps 746 mmHg 69%
16:00 +18°C° 0.1 mm 3 mps 746 mmHg 72%
17:00 +17°C° 0.1 mm 2 mps 747 mmHg 76%
18:00 +16°C° 0.1 mm 2 mps 747 mmHg 79%
19:00 +14°C° 0.1 mm 3 mps 747 mmHg 83%
20:00 +12°C° 0.1 mm 3 mps 747 mmHg 86%
21:00 +12°C° 0 mm 2 mps 747 mmHg 87%
22:00 +12°C° 0 mm 2 mps 747 mmHg 88%
23:00 +10°C° 0 mm 2 mps 747 mmHg 89%

13 August, Thursday

Time Temperature Precipitation Wind Pressure Humidity
00:00 +9°C° 0 mm 2 mps 747 mmHg 90%
01:00 +9°C° 0 mm 2 mps 747 mmHg 90%
02:00 +9°C° 0 mm 2 mps 747 mmHg 90%
03:00 +8°C° 0 mm 2 mps 747 mmHg 90%
04:00 +8°C° 0 mm 2 mps 747 mmHg 90%
05:00 +8°C° 0 mm 2 mps 747 mmHg 90%
06:00 +10°C° 0 mm 2 mps 747 mmHg 85%
07:00 +13°C° 0 mm 2 mps 747 mmHg 81%
08:00 +14°C° 0 mm 2 mps 747 mmHg 76%
09:00 +16°C° 0 mm 2 mps 747 mmHg 71%
10:00 +17°C° 0 mm 2 mps 747 mmHg 66%
11:00 +18°C° 0 mm 2 mps 747 mmHg 61%
12:00 +18°C° 0 mm 2 mps 746 mmHg 63%
13:00 +18°C° 0 mm 2 mps 746 mmHg 64%
14:00 +18°C° 0 mm 2 mps 746 mmHg 65%
15:00 +18°C° 0.1 mm 2 mps 746 mmHg 69%
16:00 +18°C° 0.1 mm 2 mps 746 mmHg 72%
17:00 +18°C° 0.1 mm 2 mps 746 mmHg 76%
18:00 +16°C° 0 mm 2 mps 746 mmHg 79%
19:00 +15°C° 0 mm 2 mps 746 mmHg 81%
20:00 +14°C° 0 mm 2 mps 746 mmHg 84%
21:00 +13°C° 0 mm 2 mps 745 mmHg 86%
22:00 +13°C° 0 mm 2 mps 745 mmHg 87%
23:00 +12°C° 0 mm 1 mps 745 mmHg 88%
Show more